Regional Weather Roundup
Issued by NWS

Home | Current Version | Previous Version | Graphics & Text | Print | Product List | Glossary On
Versions: 1 2 3 4 5 6 7 8 9 10 11 12 13 14 15 16 17 18 19 20 21 22 23 24 25 26 27 28 29 30 31 32 33 34 35 36 37 38 39 40 41 42 43 44 45 46 47 48 49 50
000
ASUS45 KABQ 221501
RWRNM
NEW MEXICO REGIONAL WEATHER ROUNDUP
NATIONAL WEATHER SERVICE ALBUQUERQUE NM
900 AM MDT SUN APR 22 2018

NOTE: "FAIR" MEANS FEW OR NO CLOUDS BELOW 12,000 FEET AGL WITH NO
       SIGNIFICANT WEATHER OR OBSTRUCTIONS TO VISION.

      THIS PRODUCT IS RELEASED AS TWO VERSIONS.  ONE VERSION NEAR
      THE TOP OF THE HOUR CONTAINING PRELIMINARY DATA FROM ALBUQUERQUE
      AND OTHER STATIONS.  A FINAL VERSION WITH ADDITIONAL DATA IS
      ISSUED ABOUT 10 MINUTES AFTER THE HOUR.

NMZ501-503-504-510>518-221600-
NORTHWEST PLATEAU/NORTHCENTRAL MOUNTAINS

CITY           SKY/WX    TMP DP  RH WIND       PRES   REMARKS
FARMINGTON     FAIR      47  21  35 E6        30.18S
LOS ALAMOS     FAIR      47  29  49 NE8       30.25S
SANTA FE       FAIR      45  35  68 VRB3      30.22F
TAOS           FAIR      46  25  43 NW5       30.27F
ANGEL FIRE     FAIR      40  26  57 CALM      30.29S

$$
NMZ402-403-502-505>509-221600-
WESTCENTRAL MOUNTAINS/SOUTHWEST MOUNTAINS

CITY           SKY/WX    TMP DP  RH WIND       PRES   REMARKS
GALLUP         FAIR      47  26  44 NE3       30.22F
GRANTS         FAIR      44  22  40 NW5       30.24S
SILVER CITY    FAIR      62  23  22 E3        30.17S

$$
NMZ407-409-411-412-221600-
SOUTHERN DESERTS

CITY           SKY/WX    TMP DP  RH WIND       PRES   REMARKS
DEMING         FAIR      59  27  29 NE9       30.13R
LAS CRUCES     FAIR      63  28  27 SE9       30.16S
HOLLOMAN AFB   FAIR      59  30  34 CALM      30.20R
ALAMOGORDO     FAIR      55  28  35 NW7       30.19R
T OR C         FAIR      59  28  30 N8        30.16R

$$
NMZ519>523-221600-
CENTRAL VALLEYS/CENTRAL HIGHLANDS

CITY           SKY/WX    TMP DP  RH WIND       PRES   REMARKS
ALBUQUERQUE    FAIR      49  34  56 N8        30.20R
DOUBLE EAGLE   SUNNY     48  28  46 N12       30.22R
MORIARTY ARPT  FAIR      45  37  72 CALM      30.25S
CLINES CORNERS FAIR      45  33  63 W8        30.25R
BELEN          FAIR      51  33  49 CALM      30.21R
SOCORRO        FAIR      52  31  43 N10       30.20R

$$
NMZ524>526-539-540-221600-
SOUTHCENTRAL MOUNTAINS

CITY           SKY/WX    TMP DP  RH WIND       PRES   REMARKS
RUIDOSO        NOT AVBL

$$
NMZ527>531-221600-
NORTHEAST HIGHLANDS/NORTHEAST PLAINS

CITY           SKY/WX    TMP DP  RH WIND       PRES   REMARKS
LAS VEGAS      FAIR      48  31  51 N6        30.21F
RATON          FAIR      43  32  65 NE7       30.19F
CLAYTON        FAIR      46  40  79 N8        30.18S

$$
NMZ532>537-221600-
EASTCENTRAL PLAINS

CITY           SKY/WX    TMP DP  RH WIND       PRES   REMARKS
SANTA ROSA     FAIR      48  37  65 SW10      30.21S
TUCUMCARI      PTSUNNY   48  42  80 S6        30.19S
CANNON AFB     FAIR      47  46  94 SW3       30.22F
CLOVIS AIRPORT   N/A     46  38  73 VRB3      30.23S

$$
NMZ028-029-538-221600-
SOUTHEAST PLAINS

CITY           SKY/WX    TMP DP  RH WIND       PRES   REMARKS
ROSWELL        FAIR      50  39  66 VRB3      30.22S
ARTESIA        FAIR      52  39  62 SE7       30.24S
CARLSBAD       FAIR      51  39  63 CALM      30.23R
HOBBS          SUNNY     52  39  62 NE7       30.24R


$$



USA.gov is the U.S. government's official web portal to all federal, state and local government web resources and services.